Chicopee, MA

11:54 AM EDT on May 25, 2017 (GMT -0400)
Westover Air Reserve Base / Metropolitan Airport

Weather History for KCEF - September, 2014

Change the Weather History Date:

Tuesday, September 16, 2014

  Actual Average Record
Temperature  
Mean Temperature 56 °F -  
Max Temperature 66 °F 72 °F 84 °F (2015)
Min Temperature 47 °F 50 °F 35 °F (2010)
Degree Days  
Heating Degree Days 9    
Growing Degree Days 6 (Base 50)    
Moisture  
Dew Point 50 °F    
Average Humidity 88    
Maximum Humidity 100    
Minimum Humidity 62    
Precipitation  
Precipitation 0.04 in - - ()
Sea Level Pressure  
Sea Level Pressure 30.03 in    
Wind  
Wind Speed 2 mph (North)    
Max Wind Speed 6 mph    
Max Gust Speed -    
Visibility 10 miles    
Events Rain    
Averages and records for this station are not official NWS values.
T = Trace of Precipitation, MM = Missing Value Source: NWS Daily Summary

Daily Weather History Graph

Daily Weather History Graph

Search for Another Location

Airport or City:

Trip Planner

Search our weather history database for the weather conditions in past years. The results will help you decide how hot, cold, wet, or windy it might be!

Date:

Astronomy

Sep. 16, 2014 Rise Set
Actual Time 6:31 AM EDT 6:58 PM EDT
Civil Twilight 6:03 AM EDT 7:26 PM EDT
Nautical Twilight 5:29 AM EDT 7:59 PM EDT
Astronomical Twilight 4:55 AM EDT 8:33 PM EDT
Moon No Moon Rise 2:24 PM EDT (9/16)
Length of Visible Light 13h 23m
Length of Day
12h 26m
Last Quarter, 44% of the Moon is Illuminated
Sep 16
Last Quarter
Sep 24
New
Oct 1
First Quarter
Oct 8
Full
Oct 15
Last Quarter

Hourly Weather History & Observations

Time (EDT) Temp. Dew Point Humidity Pressure Visibility Wind Dir Wind Speed Gust Speed Precip Events Conditions
12:58 AM 48.7 °F 47.7 °F 96% 30.11 in 10.0 mi Calm Calm - N/A   Overcast
1:58 AM 49.3 °F 47.7 °F 94% 30.09 in 10.0 mi Calm Calm - N/A   Overcast
2:58 AM 47.7 °F 46.2 °F 95% 30.08 in 10.0 mi North 2.3 mph - N/A   Overcast
3:58 AM 48.4 °F 47.1 °F 95% 30.06 in 10.0 mi NNE 2.3 mph - N/A   Scattered Clouds
4:21 AM 48.2 °F 46.4 °F 93% 30.05 in 10.0 mi NNE 2.3 mph - N/A Rain Light Rain
4:31 AM 48.2 °F 48.2 °F 100% 30.04 in 10.0 mi NE 2.3 mph - N/A   Overcast
4:58 AM 49.3 °F 47.8 °F 95% 30.07 in 10.0 mi Calm Calm - 0.00 in   Overcast
5:03 AM 50.0 °F 48.2 °F 94% 30.04 in 10.0 mi Calm Calm - N/A   Overcast
5:46 AM 50.0 °F 48.2 °F 94% 30.04 in 10.0 mi Calm Calm - N/A   Mostly Cloudy
5:54 AM 50.0 °F 48.2 °F 94% 30.04 in 10.0 mi Calm Calm - N/A   Light Drizzle
5:56 AM 50.0 °F 48.2 °F 94% 30.04 in 10.0 mi Calm Calm - N/A   Overcast
5:57 AM 50.0 °F 48.2 °F 94% 30.04 in 10.0 mi Calm Calm - N/A   Light Drizzle
5:58 AM 50.0 °F 48.2 °F 94% 30.05 in 10.0 mi Calm Calm - 0.00 in   Light Drizzle
6:07 AM 50.0 °F 48.2 °F 94% 30.03 in 10.0 mi Calm Calm - N/A   Mostly Cloudy
6:58 AM 50.0 °F 48.2 °F 94% 30.05 in 10.0 mi NNW 2.3 mph - 0.00 in   Mostly Cloudy
7:48 AM 50.0 °F 50.0 °F 100% 30.02 in 10.0 mi NNW 3.5 mph - N/A Rain Light Rain
7:58 AM 51.1 °F 49.1 °F 93% 30.03 in 10.0 mi North 3.5 mph - 0.00 in Rain Light Rain
8:26 AM 51.8 °F 48.2 °F 88% 30.02 in 10.0 mi NNW 4.6 mph - N/A   Mostly Cloudy
8:37 AM 51.8 °F 50.0 °F 94% 30.02 in 10.0 mi NNE 2.3 mph - N/A   Light Drizzle
8:43 AM 51.8 °F 50.0 °F 94% 30.02 in 10.0 mi ENE 2.3 mph - N/A   Light Drizzle
8:51 AM 51.8 °F 50.0 °F 94% 30.03 in 10.0 mi North 1.2 mph - N/A   Overcast
8:55 AM 51.8 °F 50.0 °F 94% 30.03 in 10.0 mi NNW 4.6 mph - N/A   Light Drizzle
8:58 AM 52.0 °F 49.1 °F 90% 30.05 in 10.0 mi NNW 3.5 mph - 0.00 in   Light Drizzle
9:08 AM 51.8 °F 50.0 °F 94% 30.03 in 10.0 mi NE 1.2 mph - N/A Rain Light Rain
9:25 AM 51.8 °F 50.0 °F 94% 30.03 in 10.0 mi Calm Calm - N/A Rain Light Rain
9:42 AM 53.6 °F 50.0 °F 88% 30.03 in 10.0 mi Variable 1.2 mph - N/A Rain Light Rain
9:54 AM 53.6 °F 50.0 °F 88% 30.03 in 10.0 mi ESE 2.3 mph - N/A Rain Light Rain
9:58 AM 53.6 °F 50.7 °F 90% 30.05 in 10.0 mi ESE 2.3 mph - 0.02 in Rain Light Rain
10:34 AM 53.6 °F 50.0 °F 88% 30.02 in 10.0 mi SE 2.3 mph - N/A   Mostly Cloudy
10:36 AM 53.6 °F 50.0 °F 88% 30.02 in 10.0 mi SSE 3.5 mph - N/A   Mostly Cloudy
10:58 AM 54.0 °F 51.4 °F 91% 30.03 in 10.0 mi Variable 1.2 mph - 0.02 in   Overcast
11:58 AM 57.2 °F 51.8 °F 82% 30.02 in 10.0 mi Variable 2.3 mph - N/A   Mostly Cloudy
12:58 PM 61.2 °F 53.8 °F 77% 30.00 in 10.0 mi Variable 4.6 mph - N/A   Clear
1:58 PM 63.1 °F 53.8 °F 71% 29.99 in 10.0 mi Variable 3.5 mph - N/A   Overcast
2:58 PM 64.9 °F 54.0 °F 68% 29.98 in 10.0 mi West 5.8 mph - N/A   Overcast
3:58 PM 64.9 °F 53.2 °F 66% 29.98 in 10.0 mi Variable 1.2 mph - N/A   Overcast
4:58 PM 65.3 °F 52.2 °F 62% 29.98 in 10.0 mi Variable 4.6 mph - N/A   Overcast
5:58 PM 64.6 °F 53.2 °F 67% 29.98 in 10.0 mi Calm Calm - N/A   Overcast
6:58 PM 63.7 °F 52.7 °F 67% 29.99 in 10.0 mi WSW 5.8 mph - N/A   Overcast
7:58 PM 61.7 °F 52.9 °F 73% 30.00 in 10.0 mi West 4.6 mph - N/A   Overcast
8:58 PM 57.7 °F 52.7 °F 83% 30.01 in 10.0 mi WNW 5.8 mph - N/A   Scattered Clouds
9:58 PM 55.9 °F 51.6 °F 85% 30.02 in 10.0 mi NNW 2.3 mph - N/A   Clear
10:58 PM 52.2 °F 50.0 °F 92% 30.02 in 10.0 mi East 2.3 mph - N/A   Clear
11:58 PM 48.6 °F 47.5 °F 96% 30.03 in 10.0 mi SE 2.3 mph - N/A   Clear